[ hide orbit diagram ]
For accurate long-term ephemerides, please instead use our Horizons system.This orbit viewer was implemented using two-body methods, and hence should not be used for determining accurate long-term trajectories (over several years or decades) or planetary encounter circumstances.
Orbital Elements at Epoch 2459200.5 (2020-Dec-17.0) TDB
Reference: JPL 15 (heliocentric ecliptic J2000)
Element | Value | Uncertainty (1-sigma) | Units |
e | .09496204989352057 | 5.7552e-08 | |
a | 2.724099198902488 | 1.8936e-08 | au |
q | 2.465413154861411 | 1.5181e-07 | au |
i | 2.045497274309854 | 6.2989e-06 | deg |
node | 201.5292985112058 | 0.00011578 | deg |
peri | 167.6297065491275 | 0.00011896 | deg |
M | 40.41785874069942 | 2.4792e-05 | deg |
tp | 2459016.124332522803 (2020-Jun-15.62433252) | 0.0001134 | TDB |
period | 1642.225549790281 4.50 | 1.7123e-05 4.688e-08 | d yr |
n | .219214711429848 | 2.2857e-09 | deg/d |
Q | 2.982785242943566 | 2.0734e-08 | au |
|
| | Orbit Determination Parameters
Additional Information
|
[ show covariance matrix ]
Physical Parameter Table
Parameter |
Symbol |
Value |
Units |
Sigma |
Reference |
Notes |
absolute magnitude |
H |
16.5 |
|
n/a |
MPO439992 |
|
|
173034 (2006 QG45) Discovered 2006-Aug-19 by Spacewatch at Kitt Peak |
Reference: 20071224/Numbers.arc | Last Updated: 2007-12-22 |
|
[ show close-approach data ]
|